Location: ??????????
(54.8537°N, 38.8755°E)
Time: 01:00:18
(UTC+00:00)

Transit 4A - Pass Details

Date: 19 September 2024
Orbit: 865 x 977 km, 66.8° (Epoch: 09 October)

Event Time Altitude Azimuth Distance (km) Brightness Sun altitude
Exits shadow 22:41:24 27° 103° (ESE) 1,644 9.2 -31.6°
Drops below altitude 10° 22:45:53 10° 55° (NE) 2,607 10.9 -31.3°
Sets 22:48:46 0° 45° (NE) 3,573 12.0 -31.1°
